EW6224 Weather Reports


time (UTC)temp
C
wind
direction
speed
KPH
gust
KPH
rain 1hr
cm
rain 24hr
cm
rain mn
cm
humidity
%
barometer
mb
20260508134621 12 315 1.6 14.5 0.00 0.00 0.00 64 1014.2
20260508133058 12 258 1.6 11.3 0.00 0.00 0.00 61 1014.1
20260508131552 12 355 1.6 16.1 0.00 0.00 0.00 63 1013.9
20260508130050 11 180 3.2 11.3 0.00 0.00 0.00 67 1014.0
20260508124555 10 165 0.0 11.3 0.00 0.00 0.00 69 1014.0
20260508123056 10 0 1.6 11.3 0.00 0.00 0.00 68 1013.9
20260508121553 10 0 3.2 8.0 0.00 0.00 0.00 67 1013.8
20260508120052 10 0 1.6 12.9 0.00 0.00 0.00 69 1013.9
20260508114551 9 201 1.6 8.0 0.00 0.00 0.00 73 1013.7
20260508113055 7 0 0.0 8.0 0.00 0.00 0.00 78 1013.7
20260508111558 6 0 0.0 8.0 0.00 0.00 0.00 84 1013.6
20260508110052 5 0 0.0 0.0 0.00 0.00 0.00 89 1013.5
20260508104556 4 0 0.0 1.6 0.00 0.00 0.00 90 1013.3
20260508103059 3 0 0.0 1.6 0.00 0.00 0.00 90 1013.2
20260508101553 3 0 0.0 0.0 0.00 0.00 0.00 90 1013.1
20260508100109 4 0 0.0 0.0 0.00 0.00 0.00 89 1013.0
20260508094609 4 0 0.0 0.0 0.00 0.00 0.00 89 1013.2
20260508093058 5 0 0.0 0.0 0.00 0.00 0.00 88 1013.2
20260508091604 5 0 0.0 0.0 0.00 0.00 0.00 88 1013.4
20260508090115 5 0 0.0 0.0 0.00 0.00 0.00 87 1013.5
20260508084600 6 0 0.0 1.6 0.00 0.00 0.00 85 1013.6
20260508083056 6 0 0.0 0.0 0.00 0.00 0.00 83 1013.4
20260508081605 7 0 0.0 0.0 0.00 0.00 0.00 82 1013.3
20260508080055 7 0 0.0 0.0 0.00 0.00 0.00 83 1013.5
20260508074556 7 0 0.0 1.6 0.00 0.00 0.00 82 1013.6
20260508073108 8 0 0.0 0.0 0.00 0.00 0.00 81 1013.4
20260508071553 8 0 0.0 1.6 0.00 0.00 0.00 76 1013.6
20260508070054 8 0 0.0 0.0 0.00 0.00 0.00 78 1013.6
20260508064606 8 0 0.0 1.6 0.00 0.00 0.00 75 1014.1
20260508063109 8 0 0.0 1.6 0.00 0.00 0.00 75 1014.5
20260508061606 8 0 0.0 4.8 0.00 0.00 0.00 78 1014.7
20260508060105 8 0 0.0 4.8 0.00 0.00 0.00 78 1014.7
20260508054554 7 0 0.0 1.6 0.00 0.03 0.00 84 1014.2
20260508053059 7 0 0.0 0.0 0.00 0.03 0.00 84 1013.9
20260508051612 7 0 0.0 0.0 0.00 0.03 0.00 84 1014.0
20260508050053 7 0 0.0 0.0 0.00 0.03 0.00 84 1014.1
20260508044551 7 0 0.0 0.0 0.00 0.03 0.00 84 1014.2
20260508043052 7 0 0.0 0.0 0.00 0.03 0.00 79 1014.2
20260508041555 7 0 0.0 0.0 0.00 0.03 0.00 81 1014.0
20260508040100 7 0 0.0 1.6 0.00 0.03 0.00 79 1014.2
20260508034555 7 0 0.0 0.0 0.00 0.03 0.03 81 1014.2
20260508033059 6 0 0.0 0.0 0.00 0.03 0.03 79 1014.3
20260508031557 6 0 0.0 0.0 0.00 0.03 0.03 82 1014.1
20260508030059 6 0 0.0 0.0 0.00 0.03 0.03 76 1014.0
20260508024615 7 0 0.0 0.0 0.00 0.03 0.03 77 1014.2
20260508023053 7 0 0.0 0.0 0.00 0.03 0.03 77 1013.9
20260508021558 7 0 0.0 0.0 0.00 0.03 0.03 76 1013.9
20260508020104 7 0 0.0 0.0 0.00 0.03 0.03 70 1013.8
20260508014557 7 0 0.0 0.0 0.00 0.03 0.03 66 1013.9
20260508013058 8 0 0.0 0.0 0.00 0.03 0.03 65 1013.9
20260508011602 8 0 0.0 0.0 0.00 0.03 0.03 61 1013.7
20260508010101 9 0 0.0 0.0 0.00 0.03 0.03 59 1013.7
20260508004601 10 0 0.0 0.0 0.00 0.03 0.03 56 1013.7
20260508003056 10 0 0.0 0.0 0.00 0.03 0.03 53 1013.6
20260508001556 11 0 0.0 1.6 0.00 0.03 0.03 51 1013.5
20260508000054 11 0 0.0 3.2 0.00 0.03 0.03 49 1013.4
20260507234557 12 0 0.0 3.2 0.00 0.03 0.03 49 1013.2
20260507233058 12 0 0.0 12.9 0.00 0.03 0.03 47 1013.2
20260507231559 12 352 0.0 8.0 0.00 0.03 0.03 49 1013.2
20260507230110 13 0 0.0 6.4 0.00 0.03 0.03 45 1013.2
20260507224556 13 0 0.0 8.0 0.00 0.03 0.03 46 1013.4
20260507223055 12 311 1.6 6.4 0.00 0.03 0.03 47 1013.4
20260507221558 12 0 0.0 11.3 0.00 0.03 0.03 49 1013.5
20260507220058 12 0 1.6 8.0 0.00 0.03 0.03 45 1013.5
20260507214551 13 346 4.8 22.5 0.00 0.03 0.03 45 1013.3
20260507213051 14 340 6.4 17.7 0.00 0.03 0.03 48 1013.2
20260507211558 14 344 3.2 16.1 0.00 0.03 0.03 44 1013.0
20260507210107 14 236 3.2 17.7 0.00 0.03 0.03 44 1012.9
20260507204549 13 328 3.2 17.7 0.00 0.03 0.03 51 1012.9
20260507203115 13 5 6.4 16.1 0.00 0.03 0.03 46 1012.9
20260507201553 13 295 3.2 19.3 0.00 0.03 0.03 47 1013.1
20260507200053 13 355 1.6 17.7 0.00 0.03 0.03 51 1013.1
20260507194617 13 329 8.0 17.7 0.00 0.03 0.03 46 1013.1
20260507193052 13 355 3.2 16.1 0.00 0.03 0.03 44 1013.2
20260507191550 13 28 3.2 16.1 0.00 0.03 0.03 51 1013.3
20260507190059 13 274 4.8 16.1 0.00 0.03 0.03 52 1013.3
20260507184554 13 5 8.0 16.1 0.00 0.05 0.03 51 1013.3
20260507183056 13 164 4.8 17.7 0.00 0.05 0.03 54 1013.3
20260507181553 13 234 3.2 16.1 0.00 0.05 0.03 55 1013.3
20260507180053 12 33 4.8 19.3 0.00 0.05 0.03 50 1013.4
20260507174559 12 269 3.2 17.7 0.00 0.08 0.03 50 1013.6
20260507173128 13 346 3.2 17.7 0.00 0.08 0.03 55 1013.7
20260507171558 12 344 4.8 12.9 0.00 0.08 0.03 55 1013.9
20260507170052 12 0 8.0 19.3 0.00 0.08 0.03 46 1014.0
20260507164554 12 347 3.2 14.5 0.00 0.10 0.03 49 1013.9
20260507163050 12 234 3.2 12.9 0.00 0.10 0.03 51 1014.0
20260507161606 12 302 3.2 14.5 0.00 0.10 0.03 52 1013.9
20260507160059 12 352 3.2 11.3 0.00 0.10 0.03 47 1014.0
20260507154551 11 336 4.8 17.7 0.00 0.13 0.03 47 1013.9
20260507153057 12 195 1.6 14.5 0.00 0.13 0.03 50 1013.8
20260507151552 11 217 3.2 16.1 0.00 0.13 0.03 52 1013.8
20260507150054 11 21 3.2 11.3 0.00 0.13 0.03 56 1013.8
20260507144603 11 355 3.2 14.5 0.00 0.15 0.03 51 1014.0
20260507143101 11 323 3.2 11.3 0.00 0.15 0.03 56 1014.1
20260507141600 10 345 3.2 11.3 0.00 0.15 0.03 59 1014.2
20260507140049 10 267 1.6 12.9 0.00 0.15 0.03 59 1014.2